User: anonymous   Login
Location: Rometta
(44.2000°N, 10.0500°E)
Time: 20:48:56
(UTC+00:00)
Language:

Cosmos 44 - Orbit

View from above orbital plane
View from above orbital plane
View from above satellite
View from above satellite

Ground track
Ground track

The orbit data is extracted from the following two-line orbital elements,

1 00876U 64053A   21110.43304986 -.00000058  00000-0  13877-4 0  9995
2 00876  65.0584 121.6407 0155921 279.8108  78.5418 14.63792401 12801
Epoch (UTC): 20 April 2021 10:23:35
Eccentricity: 0.0155921
inclination: 65.0584°
perigee height: 571 km
apogee height: 791 km
right ascension of ascending node: 121.6407°
argument of perigee: 279.8108°
revolutions per day: 14.63792401
mean anomaly at epoch: 78.5418°
orbit number at epoch: 1280

The dashed part of the orbit path shows where the satellite is in the earth's shadow,  

DLR